SKYSAT-C9

Last updated on Sun Jun 21 2026 00:02:52 GMT+0000 (Coordinated Universal Time)

1 42989U 17068C 26171.35464766 .00011033 00000+0 26366-3 0 9995 2 42989 97.4434 309.1976 0009511 123.1012 237.1149 15.41629285483247
UTC large
Height (km)
Speed (km/s)
/
Latitude / Longitude
Inclination (degrees)
Orbital Period (minutes)
Azimuth
Elevation
Range (km)
Doppler Factor

Next 0 passes for location: London (51.5072 / 0.1276)

No passes found over London.
SKYSAT-C9